Weather History for Spirit of St Louis, MO

Change the Weather History Date:

Saturday, December 1, 2012

  Actual Average Record
Temperature  
Mean Temperature 54 °F -  
Max Temperature 71 °F 48 °F 71 °F (2012)
Min Temperature 37 °F 30 °F 15 °F (2002)
Degree Days  
Heating Degree Days 11    
Growing Degree Days 4 (Base 50)    
Moisture  
Dew Point 47 °F    
Average Humidity 72    
Maximum Humidity 93    
Minimum Humidity 53    
Precipitation  
Precipitation 0.00 in - - ()
Sea Level Pressure  
Sea Level Pressure 30.01 in    
Wind  
Wind Speed 4 mph (South)    
Max Wind Speed 15 mph    
Max Gust Speed 23 mph    
Visibility 9 miles    
Events      
Averages and records for this station are not official NWS values.
T = Trace of Precipitation, MM = Missing Value Source: NWS Daily Summary

Daily Weather History Graph

Daily Weather History Graph

Search for Another Location

Airport:

Trip Planner

Search our weather history database for the weather conditions in past years. The results will help you decide how hot, cold, wet, or windy it might be!

Date:

Astronomy

Dec. 01, 2012 Rise Set
Actual Time 7:02 AM CST 4:41 PM CST
Civil Twilight 6:32 AM CST 5:10 PM CST
Nautical Twilight 5:59 AM CST 5:43 PM CST
Astronomical Twilight 5:27 AM CST 6:15 PM CST
Moon 7:31 PM CST (12/1) 9:15 AM CST (12/1)
Length of Visible Light 10h 38m
Length of Day
9h 39m
Waning Gibbous, 91% of the Moon is Illuminated
Dec 1
Waning Gibbous
Dec 6
Last Quarter
Dec 13
New
Dec 19
First Quarter
Dec 28
Full

Hourly Weather History & Observations

Time (CST) Temp. Windchill Dew Point Humidity Pressure Visibility Wind Dir Wind Speed Gust Speed Precip Events Conditions
12:54 AM 37.9 °F - 36.0 °F 93% 30.10 in 10.0 mi Calm Calm - N/A   Clear
1:54 AM 39.0 °F - 36.0 °F 89% 30.10 in 8.0 mi Calm Calm - N/A   Clear
2:54 AM 37.9 °F - 36.0 °F 93% 30.11 in 6.0 mi Calm Calm - N/A   Clear
3:54 AM 37.0 °F - 35.1 °F 93% 30.10 in 9.0 mi Calm Calm - N/A   Mostly Cloudy
4:49 AM 42.8 °F - 39.2 °F 87% 30.10 in 9.0 mi Calm Calm - N/A   Scattered Clouds
4:54 AM 42.1 °F - 39.0 °F 89% 30.10 in 9.0 mi Calm Calm - N/A   Partly Cloudy
5:54 AM 39.0 °F - 37.0 °F 93% 30.10 in 6.0 mi Calm Calm - N/A   Clear
6:54 AM 37.9 °F 35.5 °F 36.0 °F 93% 30.10 in 7.0 mi NE 3.5 mph - N/A   Clear
7:54 AM 44.1 °F - 41.0 °F 89% 30.09 in 7.0 mi Calm Calm - N/A   Clear
8:54 AM 59.0 °F - 50.0 °F 72% 30.07 in 10.0 mi South 5.8 mph - N/A   Clear
9:54 AM 62.1 °F - 51.1 °F 67% 30.06 in 10.0 mi South 10.4 mph - N/A   Mostly Cloudy
10:54 AM 66.0 °F - 52.0 °F 60% 30.03 in 10.0 mi South 9.2 mph 16.1 mph N/A   Partly Cloudy
11:54 AM 70.0 °F - 54.0 °F 57% 29.99 in 10.0 mi SSE 13.8 mph 19.6 mph N/A   Clear
12:54 PM 71.1 °F - 53.1 °F 53% 29.96 in 10.0 mi SSE 11.5 mph 23.0 mph N/A   Overcast
1:54 PM 71.1 °F - 53.1 °F 53% 29.94 in 10.0 mi South 11.5 mph 19.6 mph N/A   Overcast
2:54 PM 69.1 °F - 53.1 °F 57% 29.93 in 10.0 mi South 12.7 mph 18.4 mph N/A   Overcast
3:54 PM 69.1 °F - 53.1 °F 57% 29.93 in 10.0 mi South 13.8 mph 20.7 mph N/A   Overcast
4:54 PM 68.0 °F - 53.1 °F 59% 29.94 in 10.0 mi South 6.9 mph 16.1 mph N/A   Overcast
5:54 PM 66.0 °F - 53.1 °F 63% 29.94 in 10.0 mi South 11.5 mph 19.6 mph N/A   Mostly Cloudy
6:54 PM 64.9 °F - 52.0 °F 63% 29.95 in 10.0 mi SSE 9.2 mph - N/A   Partly Cloudy
7:54 PM 64.0 °F - 52.0 °F 65% 29.96 in 10.0 mi South 9.2 mph - N/A   Overcast
8:54 PM 64.0 °F - 51.1 °F 63% 29.94 in 10.0 mi Variable 5.8 mph 17.3 mph N/A   Mostly Cloudy
9:54 PM 64.0 °F - 52.0 °F 65% 29.94 in 10.0 mi South 9.2 mph - N/A   Overcast
10:54 PM 64.9 °F - 52.0 °F 63% 29.93 in 10.0 mi South 10.4 mph 21.9 mph N/A   Overcast
11:54 PM 64.9 °F - 52.0 °F 63% 29.92 in 10.0 mi SSW 15.0 mph 20.7 mph 0.00 in   Overcast